[[{"header":{"parameterUnit":"m.s-1","parameterCategory":1,"la1":30.2991,"la2":30.254,"lo1":-89.0895,"lo2":-89.0444,"dy":0.0017,"dx":0.0017,"nx":28,"ny":28,"refTime":"2024-07-18T03:00:00:Z","depth":0,"parameterNumber":2,"parameterNumberName":"U-component_of_WINDS"},"data":[0,0,0,0,0,0,0,0,0,0,0,0,0,0,0,0,0,0,0,0,0,0,0,0,0,0,0,0,0,0,0,0,0,0,0,0,0,0,0,0,0,0,0,0,0,0,0,0,0,0,0,0,0,0,0,0,0,0,1.8988,1.8989,0,1.9094,1.9095,1.9096,1.9124,1.9123,1.9122,1.9122,1.9228,1.9231,1.9234,0,0,0,0,0,0,0,0,0,0,0,0,0,1.8808,1.8811,1.8988,1.8989,1.8991,1.9093,1.9095,1.9096,1.9124,1.9123,1.9122,1.9122,1.9227,1.9231,1.9235,0,0,0,0,0,0,0,0,0,0,0,0,0,1.8897,1.8812,1.8988,1.9017,1.902,1.9093,1.9095,1.9097,1.9124,1.9123,1.9122,1.9121,1.9225,1.923,1.9235,1.9286,0,0,1.9251,1.9253,0,0,0,0,0,0,0,0,1.8892,1.8903,1.9011,1.9015,1.9019,1.9095,1.907,1.916,1.9124,1.9085,1.9122,1.9121,1.9184,1.9192,1.9214,1.9291,1.9295,1.9251,1.9254,1.9257,1.9258,0,0,0,0,0,0,0,1.8885,1.8899,1.903,1.9013,1.9018,1.9024,1.9035,1.9087,1.9138,1.9088,1.909,1.9102,1.9186,1.9209,1.9217,1.9297,1.9251,1.9256,1.9259,1.9261,1.942,1.9421,0,0,0,0,0,0,1.8875,1.8894,1.9026,1.9033,1.8952,1.9028,1.9041,1.9071,1.9138,1.9147,1.9103,1.9103,1.9201,1.9211,1.9221,1.9284,1.9257,1.9261,1.9264,1.9419,1.942,1.9421,0,0,0,0,0,0,1.8871,1.8886,1.9022,1.8964,1.8982,1.9032,1.9066,1.9074,1.9097,1.9149,1.9158,1.9118,1.9201,1.9214,1.927,1.9288,1.9264,1.9268,1.9417,1.9419,1.9421,1.9411,0,0,0,0,0,0,1.8865,1.8885,1.8905,1.8964,1.8985,1.907,1.9067,1.9077,1.9106,1.9107,1.9165,1.9174,1.9201,1.9262,1.9275,1.9295,1.9272,1.9416,1.9418,1.942,1.941,1.9412,1.9414,0,0,0,0,0,1.8859,1.8897,1.8906,1.8922,1.9011,1.9071,1.9082,1.9113,1.9108,1.9128,1.9162,1.9172,1.9284,1.9267,1.9282,1.9304,1.9415,1.9418,1.942,1.9409,1.9411,1.9414,0,0,0,0,0,0,1.8838,1.8906,1.8916,1.8975,1.9017,1.9075,1.9102,1.9115,1.9159,1.9158,1.9194,1.9207,1.926,1.9288,1.9268,1.9356,1.935,1.9355,1.9336,1.9339,1.9341,1.9332,1.9277,0,0,0,0,0,1.884,1.8884,1.894,1.8987,1.9008,1.9051,1.9078,1.9098,1.9143,1.9161,1.9198,1.9241,1.9285,1.9314,1.9358,1.9414,1.9427,1.9436,1.9439,1.944,1.9444,1.9475,1.948,1.943,1.943,1.943,0,0,1.8845,1.8888,1.8913,1.8984,1.9019,1.9062,1.9066,1.9111,1.9144,1.9167,1.9222,1.9252,1.9301,1.9357,1.9384,1.9382,1.9461,1.9443,1.9444,1.9447,1.9478,1.9483,1.9487,1.9432,1.9431,1.9431,0,0,1.8876,1.8913,1.8956,1.8991,1.9044,1.9073,1.9083,1.914,1.916,1.9217,1.9235,1.9274,1.935,1.9385,1.9412,1.9457,1.9468,1.947,1.9481,1.9511,1.9515,1.9518,1.9533,1.9538,1.9474,1.9474,1.9474,0,1.8875,1.8942,1.8976,1.9021,1.9051,1.9076,1.9119,1.9151,1.9215,1.9235,1.9233,1.9329,1.9364,1.9428,1.9439,1.9461,1.9473,1.9463,1.9511,1.9515,1.9519,1.9534,1.9539,1.9474,1.9474,1.9474,1.9474,0,1.8938,1.8984,1.9012,1.9074,1.9108,1.9152,1.9191,1.9221,1.9239,1.9267,1.9324,1.9367,1.942,1.9437,1.9454,1.9504,1.9501,1.9505,1.9498,1.9523,1.9537,1.9543,1.9474,1.9474,1.9474,1.9474,0,0,1.8958,1.9039,1.9048,1.9077,1.9138,1.9173,1.9218,1.9271,1.9295,1.9339,1.9377,1.9441,1.9445,1.9476,1.9498,1.9524,1.9555,1.9524,1.9526,1.9527,1.9611,1.9607,1.9613,1.9564,1.9565,1.9566,1.9607,0,1.8995,1.9077,1.9108,1.9174,1.9216,1.9241,1.9279,1.932,1.9349,1.9388,1.9419,1.9464,1.9466,1.9485,1.9512,1.9546,1.9572,1.9543,1.9598,1.9599,1.9583,1.9621,1.9617,1.9653,1.9613,1.9614,1.9614,0,1.905,1.9095,1.9165,1.9221,1.9239,1.9274,1.9324,1.9362,1.9409,1.9428,1.9463,1.9483,1.953,1.9522,1.9587,1.9566,1.959,1.961,1.9612,1.9617,1.9607,1.9626,1.9666,1.967,1.9624,1.9623,1.9622,0,1.9056,1.9134,1.9186,1.921,1.9276,1.9299,1.9328,1.9374,1.9404,1.9448,1.9467,1.9516,1.9543,1.958,1.9612,1.9604,1.9673,1.9668,1.9689,1.9688,1.9701,1.97,1.9744,1.9719,1.9719,1.9719,1.9719,0,1.9094,1.9135,1.9189,1.9221,1.9268,1.9304,1.935,1.938,1.9421,1.9458,1.9482,1.9517,1.9558,1.9598,1.9624,1.9673,1.9685,1.97,1.9706,1.9698,1.9695,1.9713,1.9711,1.9721,1.972,1.972,1.972,0,1.9107,1.9146,1.9204,1.9262,1.9278,1.931,1.9359,1.9391,1.942,1.9467,1.9481,1.9527,1.9575,1.9611,1.9673,1.9691,1.9742,1.9749,1.9726,1.9729,1.9748,1.9745,1.9804,1.9813,1.9783,1.9783,1.9783,0,1.9129,1.9161,1.9223,1.9251,1.9279,1.9323,1.9353,1.939,1.9421,1.9477,1.9501,1.9551,1.9593,1.9668,1.9707,1.9754,1.9762,1.9779,1.9769,1.9759,1.9761,1.9758,1.9761,1.978,1.978,1.978,1.978,0,1.9162,1.9179,1.9222,1.9272,1.9308,1.9349,1.9391,1.9411,1.9456,1.9489,1.9538,1.9571,1.9634,1.9683,1.9735,1.9763,1.9779,1.9784,1.9791,1.9781,1.9766,1.9773,1.9729,1.9782,1.9781,1.9781,1.9781,1.9781,1.9179,1.9209,1.9257,1.9305,1.934,1.9378,1.941,1.9445,1.9487,1.9542,1.9561,1.9612,1.9658,1.9729,1.9758,1.9798,1.9798,1.9809,1.9811,1.9813,1.9812,1.9761,1.9808,1.9808,1.9808,1.9808,1.9808,0,1.9212,1.9245,1.9288,1.9346,1.9383,1.9395,1.9442,1.9472,1.9517,1.9559,1.9599,1.9656,1.9704,1.9746,1.9796,1.9819,1.9828,1.9831,1.9829,1.9835,1.9809,1.9798,1.9823,1.9823,1.9823,1.9823,1.9823,1.9823,1.9234,1.9285,1.9308,1.9377,1.9409,1.9459,1.9485,1.952,1.9553,1.9616,1.9656,1.9684,1.9726,1.9779,1.9822,1.9834,1.985,1.9851,1.9864,1.9839,1.9837,1.9835,1.9824,1.9855,1.9855,1.9887,1.9887,1.9887]},{"header":{"parameterUnit":"m.s-1","parameterCategory":1,"la1":30.2991,"la2":30.254,"lo1":-89.0895,"lo2":-89.0444,"dy":0.0017,"dx":0.0017,"nx":28,"ny":28,"refTime":"2024-07-18T03:00:00:Z","depth":0,"parameterNumber":3,"parameterNumberName":"V-component_of_WINDS"},"data":[0,0,0,0,0,0,0,0,0,0,0,0,0,0,0,0,0,0,0,0,0,0,0,0,0,0,0,0,0,0,0,0,0,0,0,0,0,0,0,0,0,0,0,0,0,0,0,0,0,0,0,0,0,0,0,0,0,0,0.9617,0.9619,0,0.9778,0.9779,0.9781,0.9814,0.9813,0.9811,0.981,0.9978,0.9984,0.9989,0,0,0,0,0,0,0,0,0,0,0,0,0,0.9341,0.9346,0.9617,0.9619,0.9621,0.9777,0.978,0.9782,0.9814,0.9813,0.9811,0.981,0.9976,0.9983,0.999,0,0,0,0,0,0,0,0,0,0,0,0,0,0.9477,0.9348,0.9617,0.9656,0.9661,0.9777,0.978,0.9782,0.9814,0.9813,0.9811,0.9809,0.9974,0.9982,0.9991,1.008,0,0,1.0016,1.002,0,0,0,0,0,0,0,0,0.947,0.9488,0.9648,0.9653,0.9659,0.9774,0.9744,0.9882,0.9815,0.9756,0.981,0.9808,0.9912,0.9925,0.996,1.0087,1.0095,1.0017,1.0022,1.0026,1.0028,0,0,0,0,0,0,0,0.946,0.9481,0.9681,0.965,0.9657,0.9666,0.9684,0.977,0.9843,0.9761,0.9764,0.9782,0.9915,0.9951,0.9964,1.0097,1.0017,1.0024,1.0029,1.0033,1.0307,1.0309,0,0,0,0,0,0,0.9443,0.9473,0.9676,0.9686,0.9558,0.9673,0.9692,0.9739,0.9842,0.9856,0.9784,0.9783,0.9938,0.9954,0.997,1.0082,1.0026,1.0034,1.0038,1.0304,1.0307,1.0309,0,0,0,0,0,0,0.9437,0.9461,0.9669,0.958,0.9607,0.968,0.9732,0.9743,0.978,0.9859,0.9872,0.9808,0.9937,0.9958,1.0052,1.0088,1.0037,1.0045,1.0302,1.0305,1.0308,1.0305,0,0,0,0,0,0,0.9429,0.9459,0.9493,0.958,0.9612,0.9748,0.9734,0.9748,0.9794,0.9795,0.9885,0.9898,0.9937,1.0039,1.006,1.0098,1.0052,1.0299,1.0303,1.0307,1.0302,1.0308,1.0313,0,0,0,0,0,0.9419,0.9486,0.9494,0.9519,0.9656,0.975,0.9768,0.9811,0.9797,0.9832,0.9882,0.9895,1.008,1.0048,1.0073,1.0114,1.0297,1.0302,1.0307,1.03,1.0307,1.0312,0,0,0,0,0,0,0.9403,0.9499,0.9509,0.9606,0.9669,0.9755,0.9801,0.9816,0.9886,0.9884,0.9935,0.9955,1.0046,1.0089,1.0052,1.0205,1.0188,1.0198,1.0174,1.0181,1.0186,1.0175,1.0059,0,0,0,0,0,0.941,0.9477,0.9558,0.9636,0.9667,0.9728,0.9771,0.9798,0.9866,0.9894,0.9951,1.0018,1.0091,1.0138,1.021,1.0308,1.0329,1.0348,1.0353,1.0357,1.0366,1.0422,1.0431,1.0326,1.0326,1.0326,0,0,0.9426,0.9487,0.9527,0.9634,0.9686,0.9756,0.9751,0.9825,0.9878,0.9906,0.9998,1.0042,1.012,1.0216,1.0262,1.0255,1.0399,1.0363,1.0366,1.0373,1.0428,1.0438,1.0446,1.0329,1.0329,1.0328,0,0,0.9492,0.9544,0.9615,0.9667,0.9746,0.9786,0.9803,0.9887,0.9917,1.001,1.0032,1.0096,1.022,1.0275,1.0319,1.0404,1.0419,1.0426,1.0453,1.0507,1.0515,1.0523,1.0555,1.0565,1.0434,1.0434,1.0434,0,0.9504,0.9608,0.965,0.9723,0.977,0.9796,0.9869,0.9918,1.0017,1.0049,1.0039,1.0196,1.025,1.036,1.0381,1.0415,1.0437,1.0417,1.0511,1.0519,1.0527,1.0557,1.0569,1.0434,1.0434,1.0434,1.0434,0,0.9619,0.9691,0.9739,0.9832,0.9884,0.9956,1.001,1.0057,1.0079,1.0121,1.0215,1.0281,1.0366,1.0394,1.0417,1.0507,1.0501,1.05,1.0484,1.0536,1.0566,1.0578,1.0435,1.0435,1.0435,1.0434,0,0,0.9681,0.9794,0.9812,0.9854,0.9942,1.0,1.0073,1.0155,1.0196,1.0262,1.0326,1.043,1.043,1.048,1.0509,1.0556,1.062,1.055,1.0553,1.0562,1.0725,1.0726,1.0739,1.0629,1.0632,1.0634,1.0719,0,0.9758,0.989,0.9929,1.004,1.0108,1.0133,1.0197,1.0259,1.0299,1.0363,1.0408,1.0481,1.0475,1.0505,1.0552,1.0602,1.0654,1.0596,1.0691,1.0694,1.0672,1.0754,1.0756,1.0833,1.0731,1.0733,1.0734,0,0.9867,0.9934,1.0051,1.0131,1.0161,1.0218,1.0296,1.0356,1.0427,1.0453,1.0507,1.0532,1.0611,1.0588,1.0698,1.0658,1.0698,1.0729,1.0733,1.0745,1.0719,1.077,1.0859,1.0871,1.0753,1.0751,1.075,0,0.9902,1.0022,1.0108,1.0143,1.0237,1.0277,1.0318,1.0386,1.0433,1.0502,1.0533,1.061,1.0653,1.0712,1.0757,1.0736,1.0863,1.0844,1.0888,1.0887,1.0916,1.0914,1.1014,1.0939,1.0939,1.0938,1.0938,0,0.9986,1.0057,1.0125,1.0178,1.0258,1.0302,1.0381,1.0423,1.0484,1.0546,1.0572,1.0631,1.0686,1.0751,1.0787,1.0873,1.0892,1.0916,1.0925,1.0915,1.0912,1.0944,1.094,1.0942,1.0941,1.094,1.094,0,1.004,1.0088,1.0183,1.0263,1.0285,1.0341,1.0411,1.0464,1.0504,1.0582,1.0603,1.0667,1.0746,1.0796,1.0896,1.092,1.1015,1.1021,1.0991,1.0996,1.1037,1.1033,1.1163,1.1183,1.1093,1.1093,1.1094,0,1.0091,1.0146,1.0232,1.0275,1.0316,1.0385,1.0433,1.0478,1.0526,1.061,1.0653,1.0733,1.0799,1.0924,1.098,1.1057,1.1066,1.1106,1.1078,1.1066,1.1069,1.1066,1.1072,1.1112,1.1112,1.1113,1.1114,0,1.0177,1.0198,1.0265,1.034,1.0395,1.0457,1.0519,1.0552,1.0608,1.0662,1.0742,1.0793,1.0895,1.0974,1.1056,1.1099,1.1117,1.1121,1.1136,1.1127,1.1108,1.112,1.1005,1.1119,1.1118,1.1118,1.1118,1.1118,1.0233,1.0283,1.0351,1.0425,1.0475,1.0532,1.0585,1.0631,1.0699,1.0784,1.0807,1.0891,1.0959,1.1071,1.1115,1.1182,1.1178,1.1198,1.1204,1.1209,1.121,1.1095,1.1197,1.1197,1.1197,1.1197,1.1197,0,1.0322,1.0366,1.0433,1.0518,1.0576,1.0584,1.0653,1.0701,1.0774,1.0836,1.09,1.0992,1.1069,1.1131,1.121,1.1252,1.1262,1.1271,1.127,1.128,1.1209,1.1189,1.1262,1.1262,1.1262,1.1262,1.1262,1.1262,1.0375,1.046,1.0489,1.06,1.0644,1.0726,1.0764,1.0817,1.0866,1.0968,1.1031,1.107,1.1132,1.1216,1.1287,1.1303,1.1332,1.134,1.1358,1.1292,1.1285,1.1278,1.1259,1.1346,1.1346,1.1423,1.1424,1.1424]}]]